User: anonymous   Login
Location: Ciserano
(45.5833°N, 9.6000°E)
Time: 01:51:06
(UTC+00:00)
Language:

BREEZE-M DEB (TANK) - Orbit

View from above orbital plane
View from above orbital plane
View from above satellite
View from above satellite

Ground track
Ground track

The orbit data is extracted from the following two-line orbital elements,

1 28188U 04008B   21058.30270121  .00003412  00000-0  33493-3 0  9996
2 28188  49.5054 308.6017 5112283 216.2830  94.8643  5.47438543326283
Epoch (UTC): 27 February 2021 07:15:53
Eccentricity: 0.5112283
inclination: 49.5054°
perigee height: 269 km
apogee height: 14173 km
right ascension of ascending node: 308.6017°
argument of perigee: 216.2830°
revolutions per day: 5.47438543
mean anomaly at epoch: 94.8643°
orbit number at epoch: 32628

The dashed part of the orbit path shows where the satellite is in the earth's shadow,  

DLR